TimeCDT,TemperatureF,Dew PointF,Humidity,Sea Level PressureIn,VisibilityMPH,Wind Direction,Wind SpeedMPH,Gust SpeedMPH,PrecipitationIn,Events,Conditions,WindDirDegrees,DateUTC
12:15 AM,55.4,55.4,100,29.92,3.0,WNW,15.0,-,0.00,,Overcast,300,2013-09-20 05:15:00
12:35 AM,55.4,55.4,100,29.92,7.0,WNW,13.8,20.7,0.00,,Overcast,300,2013-09-20 05:35:00
12:55 AM,55.4,55.4,100,29.92,10.0,NW,13.8,20.7,0.00,,Overcast,310,2013-09-20 05:55:00
1:15 AM,55.4,55.4,100,29.92,10.0,WNW,16.1,21.9,0.00,,Overcast,300,2013-09-20 06:15:00
1:35 AM,55.4,55.4,100,29.93,10.0,WNW,15.0,18.4,0.00,,Overcast,290,2013-09-20 06:35:00
1:55 AM,53.6,53.6,100,29.93,10.0,NW,16.1,21.9,0.00,,Overcast,310,2013-09-20 06:55:00
2:15 AM,53.6,53.6,100,29.94,10.0,NW,18.4,23.0,0.00,,Overcast,320,2013-09-20 07:15:00
2:35 AM,53.6,53.6,100,29.94,10.0,NW,18.4,24.2,0.00,,Overcast,310,2013-09-20 07:35:00
2:55 AM,53.6,51.8,94,29.94,10.0,NW,18.4,24.2,0.00,,Overcast,320,2013-09-20 07:55:00
3:15 AM,51.8,51.8,100,29.94,10.0,NW,16.1,25.3,0.00,,Overcast,310,2013-09-20 08:15:00
3:35 AM,51.8,50.0,94,29.94,10.0,NW,18.4,24.2,0.00,,Overcast,310,2013-09-20 08:35:00
3:55 AM,51.8,50.0,94,29.95,10.0,NW,16.1,23.0,0.00,,Overcast,310,2013-09-20 08:55:00
4:15 AM,51.8,48.2,88,29.94,10.0,NW,15.0,24.2,0.00,,Overcast,310,2013-09-20 09:15:00
4:35 AM,51.8,48.2,88,29.95,10.0,WNW,13.8,19.6,0.00,,Overcast,300,2013-09-20 09:35:00
4:55 AM,50.0,48.2,94,29.95,10.0,NW,12.7,18.4,0.00,,Mostly Cloudy,310,2013-09-20 09:55:00
5:15 AM,50.0,48.2,94,29.95,10.0,NW,11.5,-,0.00,,Partly Cloudy,310,2013-09-20 10:15:00
5:35 AM,50.0,46.4,87,29.95,10.0,NW,10.4,18.4,0.00,,Mostly Cloudy,310,2013-09-20 10:35:00
5:55 AM,50.0,46.4,87,29.96,10.0,NW,10.4,-,0.00,,Overcast,310,2013-09-20 10:55:00
6:15 AM,50.0,46.4,87,29.96,10.0,NW,11.5,19.6,0.00,,Overcast,310,2013-09-20 11:15:00
6:35 AM,50.0,46.4,87,29.96,10.0,NW,9.2,-,0.00,,Overcast,310,2013-09-20 11:35:00
6:55 AM,50.0,46.4,87,29.97,10.0,NW,11.5,-,0.00,,Mostly Cloudy,310,2013-09-20 11:55:00
7:15 AM,51.8,46.4,82,29.97,10.0,NW,10.4,-,0.00,,Overcast,310,2013-09-20 12:15:00
7:35 AM,51.8,46.4,82,29.98,10.0,NW,11.5,-,0.00,,Overcast,310,2013-09-20 12:35:00
7:55 AM,51.8,46.4,82,29.99,10.0,WNW,11.5,-,0.00,,Overcast,300,2013-09-20 12:55:00
8:15 AM,51.8,46.4,82,29.98,10.0,WNW,10.4,16.1,0.00,,Overcast,300,2013-09-20 13:15:00
8:35 AM,51.8,46.4,82,29.98,10.0,NW,11.5,-,0.00,,Overcast,310,2013-09-20 13:35:00
8:55 AM,51.8,46.4,82,29.99,10.0,WNW,15.0,19.6,0.00,,Mostly Cloudy,300,2013-09-20 13:55:00
9:15 AM,51.8,46.4,82,29.99,10.0,NW,12.7,17.3,0.00,,Overcast,310,2013-09-20 14:15:00
9:35 AM,51.8,46.4,82,30.00,10.0,NW,13.8,17.3,0.00,,Overcast,310,2013-09-20 14:35:00
9:55 AM,53.6,46.4,77,30.00,10.0,NW,12.7,-,0.00,,Overcast,310,2013-09-20 14:55:00
10:15 AM,53.6,46.4,77,30.00,10.0,NW,10.4,16.1,0.00,,Overcast,310,2013-09-20 15:15:00
10:35 AM,53.6,44.6,72,30.00,10.0,NW,13.8,18.4,0.00,,Overcast,310,2013-09-20 15:35:00
10:55 AM,55.4,44.6,67,30.00,10.0,WNW,13.8,-,0.00,,Overcast,300,2013-09-20 15:55:00
11:15 AM,55.4,44.6,67,30.00,10.0,WNW,15.0,19.6,0.00,,Overcast,300,2013-09-20 16:15:00
11:35 AM,55.4,42.8,63,30.00,10.0,WNW,13.8,23.0,0.00,,Overcast,300,2013-09-20 16:35:00
11:55 AM,57.2,42.8,59,30.00,10.0,WNW,15.0,20.7,0.00,,Mostly Cloudy,300,2013-09-20 16:55:00
12:15 PM,59.0,42.8,55,29.99,10.0,NNW,18.4,25.3,0.00,,Partly Cloudy,330,2013-09-20 17:15:00
12:35 PM,60.8,41.0,48,29.99,10.0,NNW,20.7,24.2,0.00,,Partly Cloudy,330,2013-09-20 17:35:00
12:55 PM,60.8,41.0,48,29.99,10.0,NW,19.6,25.3,0.00,,Partly Cloudy,320,2013-09-20 17:55:00
1:15 PM,60.8,39.2,45,29.98,10.0,NW,15.0,23.0,0.00,,Scattered Clouds,310,2013-09-20 18:15:00
1:35 PM,62.6,41.0,45,29.98,9.0,NW,20.7,24.2,0.00,,Mostly Cloudy,320,2013-09-20 18:35:00
1:55 PM,60.8,41.0,48,29.98,9.0,WNW,17.3,23.0,0.00,,Scattered Clouds,300,2013-09-20 18:55:00
2:15 PM,62.6,41.0,45,29.97,10.0,NW,17.3,23.0,0.00,,Mostly Cloudy,310,2013-09-20 19:15:00
2:35 PM,62.6,39.2,42,29.97,10.0,NW,17.3,23.0,0.00,,Scattered Clouds,320,2013-09-20 19:35:00
2:55 PM,62.6,39.2,42,29.97,10.0,NW,19.6,26.5,0.00,,Mostly Cloudy,320,2013-09-20 19:55:00
3:15 PM,62.6,39.2,42,29.97,9.0,NW,12.7,23.0,0.00,,Mostly Cloudy,320,2013-09-20 20:15:00
3:35 PM,62.6,41.0,45,29.97,10.0,NW,15.0,20.7,0.00,,Scattered Clouds,310,2013-09-20 20:35:00
3:55 PM,62.6,39.2,42,29.97,9.0,NNW,18.4,-,0.00,,Partly Cloudy,330,2013-09-20 20:55:00
4:15 PM,62.6,41.0,45,29.97,10.0,NW,13.8,19.6,0.00,,Mostly Cloudy,320,2013-09-20 21:15:00
4:35 PM,60.8,39.2,45,29.97,10.0,NW,12.7,21.9,0.00,,Partly Cloudy,320,2013-09-20 21:35:00
4:55 PM,64.4,39.2,40,29.96,10.0,North,13.8,19.6,0.00,,Clear,350,2013-09-20 21:55:00
5:15 PM,64.4,39.2,40,29.96,10.0,WNW,13.8,18.4,0.00,,Clear,300,2013-09-20 22:15:00
5:35 PM,62.6,39.2,42,29.96,10.0,NNW,12.7,-,0.00,,Scattered Clouds,340,2013-09-20 22:35:00
5:55 PM,62.6,39.2,42,29.96,10.0,NNW,9.2,17.3,0.00,,Partly Cloudy,340,2013-09-20 22:55:00
6:15 PM,62.6,41.0,45,29.96,10.0,NNW,9.2,-,0.00,,Clear,340,2013-09-20 23:15:00
6:35 PM,60.8,42.8,52,29.96,10.0,North,4.6,-,0.00,,Clear,350,2013-09-20 23:35:00
6:55 PM,57.2,42.8,59,29.95,10.0,NNW,5.8,-,0.00,,Clear,340,2013-09-20 23:55:00
7:15 PM,57.2,42.8,59,29.95,10.0,North,5.8,-,0.00,,Clear,350,2013-09-21 00:15:00
7:35 PM,55.4,44.6,67,29.96,10.0,North,4.6,-,0.00,,Clear,350,2013-09-21 00:35:00
7:55 PM,53.6,44.6,72,29.96,10.0,North,3.5,-,0.00,,Clear,360,2013-09-21 00:55:00
8:15 PM,51.8,44.6,76,29.97,10.0,North,4.6,-,0.00,,Clear,10,2013-09-21 01:15:00
8:35 PM,51.8,44.6,76,29.98,10.0,North,4.6,-,0.00,,Clear,10,2013-09-21 01:35:00
8:55 PM,50.0,44.6,82,29.98,10.0,North,4.6,-,0.00,,Clear,10,2013-09-21 01:55:00
9:15 PM,48.2,44.6,87,29.98,10.0,North,5.8,-,0.00,,Clear,10,2013-09-21 02:15:00
9:35 PM,48.2,44.6,87,29.98,10.0,NNE,5.8,-,0.00,,Clear,20,2013-09-21 02:35:00
9:55 PM,48.2,44.6,87,29.99,10.0,North,4.6,-,0.00,,Clear,10,2013-09-21 02:55:00
10:15 PM,46.4,44.6,93,29.99,10.0,North,3.5,-,0.00,,Clear,360,2013-09-21 03:15:00
10:35 PM,46.4,44.6,93,29.99,10.0,North,3.5,-,0.00,,Clear,360,2013-09-21 03:35:00
10:55 PM,46.4,42.8,87,30.00,10.0,Calm,Calm,-,0.00,,Clear,0,2013-09-21 03:55:00
11:15 PM,46.4,42.8,87,30.00,10.0,Calm,Calm,-,0.00,,Clear,0,2013-09-21 04:15:00
11:35 PM,44.6,42.8,93,30.01,10.0,Calm,Calm,-,0.00,,Clear,0,2013-09-21 04:35:00
11:55 PM,44.6,42.8,93,30.01,10.0,Calm,Calm,-,0.00,,Clear,0,2013-09-21 04:55:00